This is the latest recevied weather packets stored in our database for station/object SQ9NFI-4. If no packets are shown the sender has not sent any weather packets the latest 10 day(s).
| Time | Temp. | Humidity | Pressure | Rain* | Wind** | Luminosity | Snow |
|---|---|---|---|---|---|---|---|
| 1777974577 | 27.78° C | 25% | 1009.8 hPa | 0 mm | - | 685 W/m² | - |
| 1777974277 | 26.67° C | 23% | 1010.5 hPa | 0 mm | - | 705 W/m² | - |
| 1777973977 | 27.22° C | 24% | 1010.5 hPa | 0 mm | - | 702 W/m² | - |
| 1777973677 | 26.67° C | 23% | 1010.8 hPa | 0 mm | - | 714 W/m² | - |
| 1777973377 | 26.67° C | 24% | 1010.8 hPa | 0 mm | - | 722 W/m² | - |
| 1777973077 | 26.67° C | 26% | 1010.8 hPa | 0 mm | - | 663 W/m² | - |
| 1777972839 | 25.56° C | 24% | 1010.8 hPa | 0 mm | - | 482 W/m² | - |
| 1777972539 | 26.11° C | 25% | 1010.8 hPa | 0 mm | - | 648 W/m² | - |
| 1777972239 | 25.56° C | 26% | 1010.8 hPa | 0 mm | - | 629 W/m² | - |
| 1777971939 | 25.56° C | 26% | 1010.8 hPa | 0 mm | - | 603 W/m² | - |
| 1777971639 | 25.56° C | 26% | 1011.2 hPa | 0 mm | - | 589 W/m² | - |
| 1777971339 | 25° C | 26% | 1011.2 hPa | 0 mm | - | 519 W/m² | - |
| 1777971039 | 25° C | 25% | 1011.2 hPa | 0 mm | - | 444 W/m² | - |
| 1777970739 | 25.56° C | 25% | 1011.2 hPa | 0 mm | - | 574 W/m² | - |
| 1777970440 | 25.56° C | 26% | 1011.2 hPa | 0 mm | - | 629 W/m² | - |
| 1777970139 | 25° C | 27% | 1011.2 hPa | 0 mm | - | 611 W/m² | - |
| 1777969839 | 25.56° C | 27% | 1011.2 hPa | 0 mm | - | 574 W/m² | - |
| 1777969539 | 24.44° C | 27% | 1011.2 hPa | 0 mm | - | 577 W/m² | - |
| 1777969239 | 24.44° C | 28% | 1011.2 hPa | 0 mm | - | 378 W/m² | - |
| 1777968939 | 24.44° C | 27% | 1011.2 hPa | 0 mm | - | 398 W/m² | - |
| 1777968639 | 25.56° C | 27% | 1011.2 hPa | 0 mm | - | 381 W/m² | - |
| 1777968339 | 25.56° C | 26% | 1011.2 hPa | 0 mm | - | 536 W/m² | - |
| 1777968039 | 25° C | 26% | 1011.5 hPa | 0 mm | - | 523 W/m² | - |
| 1777967739 | 24.44° C | 28% | 1011.5 hPa | 0 mm | - | 525 W/m² | - |
| 1777967439 | 25° C | 28% | 1011.5 hPa | 0 mm | - | 502 W/m² | - |
* Rain latest hour (hover to see other rain measurements)
** Current wind speed in m/s (hover to see current wind gust speed)